Weather History for Covington, KY

Change the Weather History Date:

Monday, June 24, 2013

  Actual Average Record
Temperature  
Mean Temperature 76 °F 74 °F  
Max Temperature 85 °F 84 °F 98 °F (1914)
Min Temperature 66 °F 64 °F 47 °F (1972)
Degree Days  
Heating Degree Days 0 0  
Month to date heating degree days 1 12  
Since 1 June heating degree days 1 12  
Since 1 July heating degree days 4981 4972  
Cooling Degree Days 11 9  
Month to date cooling degree days 179 167  
Year to date cooling degree days 318 261  
Since 1 June cooling degree days 179 167  
Growing Degree Days 25 (Base 50)    
Moisture  
Dew Point 68 °F    
Average Humidity 79    
Maximum Humidity 97    
Minimum Humidity 61    
Precipitation  
Precipitation 0.00 in 0.11 in 2.21 in (2014)
Month to date precipitation 3.67 3.34  
Year to date precipitation 21.55 21.93  
Snow  
Snow 0.00 in 0.00 in 0.00 in ()
Month to date snowfall 0.0 0.0  
Since 1 June snowfall 0.0 0.0  
Since 1 July snowfall 25.2 22.1  
Snow Depth 0.00 in    
Sea Level Pressure  
Sea Level Pressure 30.09 in    
Wind  
Wind Speed 6 mph (SSW)    
Max Wind Speed 14 mph    
Max Gust Speed 18 mph    
Visibility 8 miles    
Events      
T = Trace of Precipitation, MM = Missing Value Source: NWS Daily Summary

Daily Weather History Graph

Daily Weather History Graph

Search for Another Location

Airport:

Trip Planner

Search our weather history database for the weather conditions in past years. The results will help you decide how hot, cold, wet, or windy it might be!

Date:

Astronomy

Jun. 24, 2013 Rise Set
Actual Time 6:13 AM EDT 9:08 PM EDT
Civil Twilight 5:41 AM EDT 9:40 PM EDT
Nautical Twilight 5:01 AM EDT 10:21 PM EDT
Astronomical Twilight 4:14 AM EDT 11:07 PM EDT
Moon 10:11 PM EDT (6/24) 7:39 AM EDT (6/24)
Length of Visible Light 15h 58m
Length of Day
14h 54m
Full, 98% of the Moon is Illuminated
Jun 24
Full
Jun 30
Last Quarter
Jul 8
New
Jul 15
First Quarter
Jul 22
Full

Hourly Weather History & Observations

Time (EDT) Temp. Heat Index Dew Point Humidity Pressure Visibility Wind Dir Wind Speed Gust Speed Precip Events Conditions
12:52 AM 69.1 °F - 66.0 °F 90% 30.11 in 7.0 mi SSE 4.6 mph - N/A   Partly Cloudy
1:52 AM 70.0 °F - 66.0 °F 87% 30.09 in 8.0 mi Calm Calm - N/A   Clear
2:52 AM 70.0 °F - 64.9 °F 84% 30.08 in 8.0 mi SSE 3.5 mph - N/A   Clear
3:52 AM 70.0 °F - 66.0 °F 87% 30.08 in 8.0 mi ESE 4.6 mph - N/A   Scattered Clouds
4:52 AM 66.9 °F - 64.9 °F 93% 30.09 in 7.0 mi SSE 5.8 mph - N/A   Partly Cloudy
5:52 AM 68.0 °F - 66.0 °F 93% 30.09 in 8.0 mi South 5.8 mph - N/A   Scattered Clouds
6:52 AM 69.1 °F - 66.9 °F 93% 30.10 in 6.0 mi South 5.8 mph - N/A   Mostly Cloudy
7:52 AM 72.0 °F - 68.0 °F 87% 30.12 in 7.0 mi South 5.8 mph - N/A   Mostly Cloudy
8:52 AM 75.0 °F - 70.0 °F 84% 30.13 in 8.0 mi South 6.9 mph - N/A   Mostly Cloudy
9:52 AM 77.0 °F - 70.0 °F 79% 30.14 in 8.0 mi SW 6.9 mph - N/A   Overcast
10:52 AM 80.1 °F 82.9 °F 69.1 °F 69% 30.14 in 8.0 mi SW 9.2 mph - N/A   Mostly Cloudy
11:52 AM 80.1 °F 83.6 °F 71.1 °F 74% 30.14 in 8.0 mi West 10.4 mph - N/A   Mostly Cloudy
12:52 PM 82.0 °F 85.9 °F 70.0 °F 67% 30.12 in 8.0 mi Variable 4.6 mph - N/A   Mostly Cloudy
1:52 PM 82.0 °F 85.9 °F 70.0 °F 67% 30.11 in 9.0 mi WNW 3.5 mph - N/A   Mostly Cloudy
2:52 PM 84.0 °F 88.4 °F 70.0 °F 63% 30.08 in 10.0 mi SSW 8.1 mph - N/A   Mostly Cloudy
3:52 PM 84.0 °F 88.4 °F 70.0 °F 63% 30.07 in 8.0 mi SW 5.8 mph - N/A   Overcast
4:52 PM 82.9 °F 86.5 °F 69.1 °F 63% 30.04 in 9.0 mi SSW 12.7 mph - N/A   Mostly Cloudy
5:52 PM 81.0 °F 84.1 °F 69.1 °F 67% 30.04 in 8.0 mi SW 8.1 mph - N/A   Overcast
6:52 PM 80.1 °F 82.9 °F 69.1 °F 69% 30.05 in 7.0 mi SW 8.1 mph - N/A   Overcast
7:52 PM 80.1 °F 83.2 °F 70.0 °F 71% 30.06 in 6.0 mi SW 3.5 mph - N/A   Haze
8:52 PM 77.0 °F - 70.0 °F 79% 30.04 in 6.0 mi SW 4.6 mph - N/A   Haze
9:52 PM 73.9 °F - 70.0 °F 87% 30.05 in 7.0 mi SSW 6.9 mph - N/A   Scattered Clouds
10:52 PM 72.0 °F - 69.1 °F 91% 30.07 in 10.0 mi SSW 3.5 mph - N/A   Scattered Clouds
11:52 PM 69.1 °F - 68.0 °F 96% 30.06 in 10.0 mi South 6.9 mph - N/A   Scattered Clouds